Flag for Japan Weather past 2 weeks in Fukushima, Japan

Now
65 °F

Light rain. Overcast.


Feels Like: 65 °F
Forecast: 64 / 76 °F
Wind: 1 mph from Northwest

Location: Wakamatsu

Current Time: Aug 27, 2014 at 10:18:22 PM

Latest Report: Aug 27, 2014 at 9:00 PM


Visibility: 13 mi

Pressure: 30.01 "Hg

Humidity: 96%

Dew point: 64 °F

Location of FukushimaLocation

Historic Weather in Fukushima — Graph

°F

Fukushima temperature yesterday

Maximum temperature yesterday: 74 °F (at 5:00 PM)
Minimum temperature yesterday: 67 °F (at 12:00 PM)
Average temperature yesterday: 70 °F

Past Weeks' High & Low Weather Summary

 TemperatureHumidityPressure
High94 °F (Aug 22, 1:00 PM)99% (Aug 13, 3:00 AM)30.01 "Hg (Aug 13, 3:00 AM)
Low64 °F (Aug 13, 2:00 AM)47% (Aug 22, 1:00 PM)29.67 "Hg (Aug 15, 5:00 PM)
Average77 °F82%29.87 "Hg
* Reported Aug 12 8:00 PM — Aug 27 8:00 PM, Fukushima, Weather by CustomWeather, © 2014

Note: Actual official high and low records may vary slightly from our data, if they occured in-between our weather recording intervals... More about our weather records

Advertising

Fukushima weather history for previous 24 hours

 ConditionsComfort  
Time TempWeatherWind HumidityBarometerVisibility
8:00 PM
Aug 27
65 °FLight rain. Overcast.2 mph95%30.01 "Hg10 mi
7:00 PM65 °FLight rain. Overcast.3 mph93%29.99 "Hg4 mi
6:00 PM66 °FLight rain. Overcast.3 mph88%29.98 "Hg12 mi
5:00 PM66 °FLight rain. Cloudy.3 mph88%29.97 "Hg12 mi
4:00 PM67 °FLight rain. Cloudy.5 mph85%29.97 "Hg5 mi
3:00 PM68 °FLight rain. Cloudy.5 mph78%29.95 "Hg12 mi
2:00 PM69 °FMild.8 mph73%29.95 "Hg12 mi
1:00 PM69 °FMild.6 mph71%29.96 "Hg12 mi
12:00 PM69 °FLight rain. Cloudy.5 mph74%29.97 "Hg12 mi
11:00 AM68 °FMild.7 mph74%29.98 "Hg12 mi
10:00 AM69 °FMild.8 mph68%29.98 "Hg12 mi
9:00 AM69 °FMild.5 mph70%29.97 "Hg12 mi
8:00 AM68 °FMild.3 mph71%29.96 "Hg12 mi
7:00 AM68 °FMild.5 mph76%29.97 "Hg12 mi
6:00 AM66 °FMild.6 mph77%29.96 "Hg12 mi
5:00 AM67 °FLight rain. Cloudy.5 mph77%29.95 "Hg12 mi
4:00 AM67 °FMild.6 mph75%29.92 "Hg12 mi
3:00 AM68 °FMild.6 mph74%29.92 "Hg12 mi
2:00 AM68 °FMild.5 mph75%29.91 "Hg12 mi
1:00 AM69 °FMild.3 mph74%29.90 "Hg12 mi
12:00 AM69 °FMild.5 mph72%29.90 "Hg12 mi
11:00 PM
Aug 26
70 °FMild.8 mph73%29.89 "Hg12 mi
10:00 PM71 °FMild.9 mph69%29.89 "Hg12 mi
Weather by CustomWeather, © 2014

See weather overviewHow to use our weather pages